shijiazhuang , China , ASIA

  • Tuesday
    June 19

      Sunny

      73 °F

      No wind

       

  • Wednesday
    June 20

    Sunny  Sunny

    97 °F  73 °F

    South  No wind

    3~4L    

  • Thursday
    June 21

    Cloudy  Overcast

    97 °F  77 °F

    South  North

    3~4L    

  • Friday
    June 22

    Cloudy  Sunny

    93 °F  75 °F

    South  North

    3~4L    

  • Saturday
    June 23

    Cloudy  Cloudy

    93 °F  73 °F

    South  North

    3~4L    

  • Sunday
    June 24

    Overcast  Overcast

    91 °F  73 °F

    South  North

    3~4L    

  • Monday
    June 25

    Cloudy  Cloudy

    90 °F  72 °F

    South  North

    3~4L    

Date   Weather Temperature Humidity Total_rain Visibility Wind
23:00 Sunny 77°F 61.5% 0mm 999.9km Southwest  0.6m/s
02:00 Sunny 76°F 65.5% 0mm 999.9km Northwest  0.7m/s
05:00 Sunny 74°F 68.7% 0mm 999.9km Northwest  1.2m/s
08:00 Sunny 80°F 57.1% 0mm 999.9km Southwest  1.3m/s
11:00 Sunny 91°F 44.6% 0mm 999.9km Southeast  1.6m/s
14:00 Sunny 96°F 36.8% 0mm 999.9km Southeast  1.8m/s
17:00 Sunny 96°F 37.7% 0mm 999.9km Southeast  2.9m/s
20:00 Sunny 87°F 36.2% 0mm 999.9km Southwest  1.9m/s
23:00 Sunny 84°F 59.7% 0mm 999.9km Southwest  0.6m/s
02:00 Sunny 77°F 65.3% 0mm 999.9km Southwest  0.9m/s
05:00 Sunny 74°F 70.5% 0mm 999.9km Southwest  1.0m/s
08:00 Sunny 82°F 62.5% 0mm 999.9km Southwest  0.8m/s
11:00 Cloudy 96°F 58.1% 0mm 999.9km Southwest  0.6m/s
14:00 Cloudy 92°F 59.1% 0mm 999.9km Southwest  2.4m/s
17:00 Cloudy 89°F 68% 0mm 999.9km Northwest  2.3m/s
20:00 Cloudy 86°F 55.4% 0mm 999.9km Northwest  1.3m/s
23:00 Overcast 83°F 82.4% 0mm 999.9km Northwest  0.6m/s
02:00 Overcast 78°F 75% 0mm 999.9km Southwest  0.3m/s
05:00 Overcast 77°F 76.7% 0mm 999.9km Southwest  1.1m/s
08:00 Overcast 78°F 78.4% 0mm 999.9km Southwest  0.9m/s
11:00 Cloudy 93°F 72.6% 0mm 999.9km Southwest  1.3m/s
14:00 Cloudy 90°F 54.3% 0mm 999.9km Southeast  1.6m/s
17:00 Cloudy 89°F 50.1% 0mm 999.9km Southeast  2.4m/s
20:00 Cloudy 87°F 47.4% 0mm 999.9km Southeast  2.1m/s
23:00 Sunny 79°F 67.1% 0mm 999.9km Southeast  1.1m/s
02:00 Sunny 77°F 67.7% 0mm 999.9km Southwest  0.7m/s
05:00 Sunny 76°F 73.5% 0mm 999.9km Southwest  0.4m/s
08:00 Sunny 79°F 70.6% 0mm 999.9km Southwest  1.4m/s
11:00 Cloudy 89°F 64% 0mm 999.9km Southwest  2.0m/s
14:00 Cloudy 93°F 49.2% 0mm 999.9km Southeast  2.3m/s
17:00 Cloudy 91°F 48.3% 0mm 999.9km Southeast  2.4m/s
20:00 Cloudy 86°F 49.7% 0mm 999.9km Southeast  1.8m/s
23:00 Cloudy 80°F 54.4% 0mm 999.9km Southwest  1.1m/s
02:00 Cloudy 75°F 59.3% 0mm 999.9km Southwest  0.9m/s
05:00 Cloudy 74°F 69.2% 0mm 999.9km Southwest  1.5m/s
08:00 Cloudy 79°F 61.2% 0mm 999.9km Southwest  1.1m/s
11:00 Overcast 87°F 60.5% 0mm 999.9km Southeast  1.4m/s
14:00 Overcast 91°F 43.6% 0mm 999.9km Southeast  2.1m/s
17:00 Overcast 89°F 50.5% 0mm 999.9km Southeast  2.1m/s
20:00 Overcast 85°F 49.6% 0mm 999.9km Southeast  2.0m/s
23:00 Overcast 80°F 59.7% 0mm 999.9km Southwest  0.8m/s
02:00 Overcast 77°F 66.6% 0mm 999.9km Southwest  0.7m/s
05:00 Overcast 74°F 68.2% 0mm 999.9km Southwest  0.6m/s
08:00 Overcast 78°F 71.9% 0mm 999.9km Southeast  1.2m/s
11:00 Cloudy 86°F 63.7% 0mm 999.9km Northeast  0.9m/s
14:00 Cloudy 89°F 55.5% 0mm 999.9km Southeast  2.9m/s
17:00 Cloudy 89°F 61.6% 0mm 999.9km Southeast  2.8m/s
20:00 Cloudy 82°F 54.6% 0mm 999.9km Southeast  1.8m/s
23:00 Cloudy 77°F 63.2% 0mm 999.9km Southeast  1.1m/s
02:00 Cloudy 76°F 74.7% 0mm 999.9km Southeast  0.3m/s
05:00 Cloudy 72°F 71.3% 0mm 999.9km Northeast  0.7m/s